Location: Unspecified
(47.2500°N, 0.0000°E)
Time: 17:39:47
(UTC+00:00)

OTV 5 (USA 277) - Visible Passes

Search period start: 17 June 2019 00:00
Search period end: 27 June 2019 00:00
Orbit: 310 x 325 km, 54.5° (Epoch: 08 May)

Date Brightness Start Highest point End Pass type
(mag) Time Alt. Az. Time Alt. Az. Time Alt. Az.
17 Jun ? 01:26:13 10° WNW 01:28:30 23° NNW 01:30:48 10° NE visible
17 Jun ? 03:01:28 10° NW 03:03:31 18° N 03:05:34 10° NE visible
18 Jun ? 00:08:19 42° NW 00:08:41 45° NNW 00:11:23 10° NE visible
18 Jun ? 01:41:27 10° NW 01:43:31 18° N 01:45:34 10° NE visible
18 Jun ? 03:16:14 10° NW 03:18:31 22° NNE 03:20:48 10° ENE visible
18 Jun ? 22:50:35 22° ENE 22:50:35 22° ENE 22:51:49 10° ENE visible
19 Jun ? 00:21:24 12° WNW 00:23:35 27° NNW 00:26:01 10° NE visible
19 Jun ? 01:56:33 10° NW 01:58:33 18° N 02:00:33 10° NE visible
19 Jun ? 23:03:08 43° W 23:03:49 65° NNW 23:06:35 10° NE visible
20 Jun ? 00:36:23 10° WNW 00:38:33 20° N 00:40:43 10° NE visible
20 Jun ? 02:11:25 10° NW 02:13:34 20° N 02:15:44 10° ENE visible
20 Jun ? 21:42:46 18° SSW 21:44:21 33° SE 21:46:53 10° ENE visible
20 Jun ? 23:16:06 10° W 23:18:40 33° NNW 23:21:15 10° NE visible
21 Jun ? 00:51:34 10° NW 00:53:35 18° N 00:55:35 10° NE visible
21 Jun ? 02:26:07 10° NW 02:28:33 27° NNE 02:30:58 10° E visible
21 Jun ? 21:56:14 10° SW 21:58:59 83° SSE 22:01:47 10° ENE visible
21 Jun ? 23:31:18 10° WNW 23:33:36 23° NNW 23:35:55 10° NE visible
22 Jun ? 01:06:33 10° NW 01:08:37 18° N 01:10:41 10° NE visible
22 Jun ? 02:40:46 10° NW 02:43:27 45° NNE 02:46:07 10° ESE visible
22 Jun ? 22:11:06 10° WSW 22:13:47 45° NNW 22:16:29 10° NE visible
22 Jun ? 23:46:32 10° NW 23:48:37 18° N 23:50:41 10° NE visible
23 Jun ? 01:21:19 10° NW 01:23:37 23° NNE 01:25:55 10° ENE visible
23 Jun ? 02:55:28 10° WNW 02:58:13 82° SW 03:00:58 10° SE visible
23 Jun ? 20:51:30 10° SW 20:54:12 52° SE 20:56:55 10° ENE visible
23 Jun ? 22:26:14 10° W 22:28:41 27° NNW 22:31:07 10° NE visible
24 Jun ? 00:01:38 10° NW 00:03:39 18° N 00:05:40 10° NE visible
24 Jun ? 01:35:59 10° NW 01:38:34 34° NNE 01:41:07 10° E visible
24 Jun ? 03:10:21 10° WNW 03:12:53 32° SW 03:15:24 10° SSE visible
24 Jun ? 21:06:10 10° WSW 21:08:55 65° NNW 21:11:41 10° NE visible
24 Jun ? 22:41:30 10° WNW 22:43:39 20° N 22:45:50 10° NE visible
25 Jun ? 00:16:30 10° NW 00:18:40 20° N 00:20:51 10° ENE visible
25 Jun ? 01:50:39 10° NW 01:53:24 66° NNE 01:56:08 10° ESE visible
25 Jun ? 21:21:12 10° W 21:23:46 33° NNW 21:26:21 10° NE visible
25 Jun ? 22:56:40 10° NW 22:58:40 18° N 23:00:42 10° NE visible
26 Jun ? 00:31:12 10° NW 00:33:39 27° NNE 00:36:05 10° E visible
26 Jun ? 02:05:25 10° WNW 02:08:07 51° SW 02:10:48 10° SE visible
26 Jun ? 21:36:25 10° WNW 21:38:42 23° NNW 21:41:00 10° NE visible
26 Jun ? 23:11:39 10° NW 23:13:43 19° N 23:15:47 10° NE visible
